Probability
0 0 0 0 0 0 0 0 0 0 0 0 0 0 0 0 0 0 0 0 0 0 0 0 0 0 0 0 0 0 0 0 0 0 0 0 0 0 0 0 0 0 0 0 0 0 0 0 0
0 0 0 0 0 0 0 0 0 0 0 0 0 0 0 0 0 0 0 0 0 0 0 0 0 0 0 0 0 0 0 0 0 0 0 0 0 0 0 0 0 0 0 0 0 0 0 0 0
0 0 0 0 0 0 0 0 0 0 0 0 0 0 0 0 0 0 0 0 0 0 0 0 0 0 0 0 0 0 0 0 0 0 0 0 0 0 0 0 0 0 0 0 0 0 0 0 0
0 0 0 0 0 0 0 0 0 0 0 0 0 0 0 0 0 0 0 0 0 0 0 0 0 0 0 0 0 0 0 0 0 0 0 0 0 0 0 0 0 0 0 0 0 0 0 0 0
0 0 0 0 0 0 0 0 0 0 0 0 0 0 0 0 0 0 0 0 0 0 0 0 0 0 0 0 0 0 0 0 0 0 0 0 0 0 0 0 0 0 0 0 0 0 0 0 0
0 0 0 0 0 0 0 0 0 0 0 0 0 0 0 0 0 0 0 0 0 0 0 0 0 0 0 0 0 0 0 0 0 0 0 0 0 0 0 0 0 0 0 0 0 0 0 0 0
0 0 0 0 0 0 0 0 0 0 0 0 0 0 0 0 0 0 0 0 0 0 0 0 0 0 0 0 0 0 0 0 0 0 0 0 0 0 0 0 0 0 0 0 0 0 0 0 0
0 0 0 0 0 0 0 0 0 0 0 0 0 0 0 0 0 0 0 0 0 0 0 0 0 0 0 0 0 0 0 0 0 0 0 0 0 0 0 0 0 0 0 0 0 0 0 0 0
0 0 0 0 0 0 0 0 0 0 0 0 0 0 0 0 0 0 0 0 0 0 0 0 0 0 0 0 0 0 0 0 0 0 0 0 0 0 0 0 0 0 0 0 0 0 0 0 0
0 0 0 0 0 0 0 0 0 0 0 0 0 0 0 0 0 0 0 0 0 0 0 0 0 0 0 0 0 0 0 0 0 0 0 0 0 0 0 0 0 0 0 0 0 0 0 0 0
0 0 0 0 0 0 0 0 0 0 0 0 0 0 0 0 0 0 0 0 0 0 0 0 0 0 0 0 0 0 0 0 0 0 0 0 0 0 0 0 0 0 0 0 0 0 0 0 0
0 0 0 0 0 0 0 0 0 0 0 0 0 0 0 0 0 0 0 0 0 0 0 0 0 0 0 0 0 0 0 0 0 0 0 0 0 0 0 0 0 0 0 0 0 0 0 0 0
0 0 0 0 0 0 0 0 0 0 0 0 0 0 0 0 0 0 0 0 0 0 0 0 0 0 0 0 0 0 0 0 0 0 0 0 0 0 0 0 0 0 0 0 0 0 0 0 0
0 0 0 0 0 0 0 0 0 0 0 0 0 0 0 0 0 0 0 0 0 0 0 0 0 0 0 0 0 0 0 0 0 0 0 0 0 0 0 0 0 0 0 0 0 0 0 0 0
0 0 0 0 0 0 0 0 0 0 0 0 0 0 0 0 0 0 0 0 0 0 0 0 0 0 0 0 0 0 0 0 0 0 0 0 0 0 0 0 0 0 0 0 0 0 0 0 0
0 0 0 0 0 0 0 0 0 0 0 0 0 0 0 0 0 0 0 0 0 0 0 0 0 0 0 0 0 0 0 0 0 0 0 0 0 0 0 0 0 0 0 0 0 0 0 0 0
0 0 0 0 0 0 0 0 0 0 0 0 0 0 0 0 0 0 0 0 0 0 0 0 0 0 0 0 0 0 0 0 0 0 0 0 0 0 0 0 0 0 0 0 0 0 0 0 0
0 0 0 0 0 0 0 0 0 0 0 0 0 0 0 0 0 0 0 0 0 0 0 0 0 0 0 0 0 0 0 0 0 0 0 0 0 0 0 0 0 0 0 0 0 0 0 0 0
0 0 0 0 0 0 0 0 0 0 0 0 0 0 0 0 0 0 0 0 0 0 0 0 0 0 0 0 0 0 0 0 0 0 0 0 0 0 0 0 0 0 0 0 0 0 0 0 0
0 0 0 0 0 0 0 0 0 0 0 0 0 0 0 0 0 0 0 0 0 0 0 0 0 0 0 0 0 0 0 0 0 0 0 0 0 0 0 0 0 0 0 0 0 0 0 0 0
0 0 0 0 0 0 0 0 0 0 0 0 0 0 0 0 0 0 0 0 0 0 0 0 0 0 0 0 0 0 0 0 0 0 0 0 0 0 0 0 0 0 0 0 0 0 0 0 0
0 0 0 0 0 0 0 0 0 0 0 0 0 0 0 0 0 0 0 0 0 0 0 0 0 0 0 0 0 0 0 0 0 0 0 0 0 0 0 0 0 0 0 0 0 0 0 0 0
0 0 0 0 0 0 0 0 0 0 0 0 0 0 0 0 0 0 0 0 0 0 0 0 0 0 0 0 0 0 0 0 0 0 0 0 0 0 0 0 0 0 0 0 0 0 0 0 0
0 0 0 0 0 0 0 0 0 0 0 0 0 0 0 0 0 0 0 0 0 0 0 0 0 0 0 0 0 0 0 0 0 0 0 0 0 0 0 0 0 0 0 0 0 0 0 0 0
0 0 0 0 0 0 0 0 0 0 0 0 0 0 0 0 0 0 0 0 0 0 0 0 0 0 0 0 0 0 0 0 0 0 0 0 0 0 0 0 0 0 0 0 0 0 0 0 0
0 0 0 0 0 0 0 0 0 0 0 0 0 0 0 0 0 0 0 0 0 0 0 0 0 0 0 0 0 0 0 0 0 0 0 0 0 0 0 0 0 0 0 0 0 0 0 0 0
0 0 0 0 0 0 0 0 0 0 0 0 0 0 0 0 0 0 0 0 0 0 0 0 0 0 0 0 0 0 0 0 0 0 0 0 0 0 0 0 0 0 0 0 0 0 0 0 0
0 0 0 0 0 0 0 0 0 0 0 0 0 0 0 0 0 0 0 0 0 0 0 0 0 0 0 0 0 0 0 0 0 0 0 0 0 0 0 0 0 0 0 0 0 0 0 0 0
0 0 0 0 0 0 0 0 0 0 0 0 0 0 0 0 0 0 0 0 0 0 0 0 0 0 0 0 0 0 0 0 0 0 0 0 0 0 0 0 0 0 0 0 0 0 0 0 0
0 0 0 0 0 0 0 0 0 0 0 0 0 0 0 0 0 0 0 0 0 0 0 0 0 0 0 0 0 0 0 0 0 0 0 0 0 0 0 0 0 0 0 0 0 0 0 0 0
Wind_Speed
3 2 3 3 5 4 3 1 1 4 4 3 4 4 4 4 4 3 6 11 13 15 14 15 14 13 11 10 9 9 9 9 10 10 11 12 12 13 13 14 15 16 16 17 18 18 19 19 19
1 2 4 4 6 5 2 2 4 3 4 6 5 5 5 5 1 4 9 12 15 15 13 14 15 13 12 11 10 9 9 9 9 9 10 11 11 12 12 13 14 14 15 16 16 17 17 18 18
2 3 3 4 7 6 4 1 2 5 5 7 7 5 5 2 5 6 10 16 15 14 13 14 16 14 13 11 10 9 9 9 9 9 9 10 10 11 11 12 12 13 13 14 15 15 16 17 17
3 3 3 7 8 4 4 0 4 7 7 6 6 6 5 1 3 6 14 18 16 15 14 14 16 15 13 12 11 10 9 9 9 8 8 9 9 9 10 10 11 11 12 13 13 14 15 16 16
3 3 7 9 10 4 2 1 6 9 8 9 8 6 5 6 5 10 16 18 16 15 14 14 16 15 14 13 11 10 10 9 9 8 8 8 8 8 8 9 9 10 10 11 12 13 14 14 15
2 4 9 10 11 6 4 5 7 9 8 7 9 7 3 8 10 13 17 17 15 14 13 12 17 16 15 13 12 11 10 10 9 8 7 7 7 7 7 8 8 8 9 10 11 11 12 13 14
3 5 11 13 13 12 5 7 7 9 11 10 7 7 5 9 11 13 16 16 15 14 13 12 14 15 15 14 13 12 11 10 10 9 8 7 6 6 6 6 6 7 7 8 9 10 11 12 13
2 5 12 13 14 15 3 8 5 8 7 4 7 9 3 9 14 14 15 14 14 14 14 13 12 13 13 13 14 13 12 11 11 10 9 8 6 6 5 4 5 5 6 7 8 9 9 10 11
3 7 12 13 12 11 4 8 5 4 5 6 8 5 5 12 17 16 15 15 15 15 15 14 14 13 12 11 13 14 13 12 12 10 10 8 5 5 4 4 4 4 4 5 6 7 7 6 7
4 8 12 6 6 6 4 7 6 7 10 10 10 10 7 14 18 19 20 21 21 21 19 16 15 14 13 10 10 9 9 10 10 8 9 6 5 4 4 5 3 3 3 3 5 5 4 4 4
5 8 6 4 5 5 5 6 6 9 14 14 13 15 16 17 19 21 22 22 22 20 19 18 17 15 14 10 9 7 6 7 9 10 9 7 6 5 5 4 5 4 3 2 1 1 2 4 4
5 6 5 4 3 5 6 6 8 14 15 6 9 9 18 20 22 23 23 22 20 20 21 20 18 16 15 12 10 9 8 7 7 9 11 8 5 6 5 4 4 4 3 2 2 1 2 3 4
6 4 4 5 6 8 8 12 11 17 17 11 6 11 18 21 22 22 21 19 19 21 21 21 20 18 16 13 10 10 10 9 10 9 10 10 7 7 7 5 5 5 4 4 3 2 2 3 4
3 5 7 6 7 5 9 11 10 18 13 14 16 17 18 21 22 21 21 21 22 22 22 21 21 20 18 14 12 11 10 10 10 10 12 12 9 8 7 7 6 6 5 4 3 3 3 4 4
3 7 9 7 6 4 6 13 14 16 8 13 17 19 19 21 21 23 23 23 23 22 21 22 21 21 20 18 16 11 10 11 10 10 12 13 11 10 8 7 7 6 6 6 5 5 4 4 5
4 6 6 3 5 3 6 16 12 8 11 16 17 18 19 20 22 22 22 21 21 20 21 22 18 21 21 18 16 12 11 12 11 10 11 14 14 12 10 8 8 7 6 6 5 5 5 5 6
5 6 9 6 5 4 8 20 22 10 12 18 19 18 18 19 21 22 22 21 20 20 21 21 21 22 21 19 15 14 12 12 11 11 11 13 15 14 11 9 8 9 7 7 6 6 6 6 6
7 11 12 12 3 7 12 22 27 20 16 21 21 20 18 19 21 19 20 20 19 19 19 20 21 21 20 16 14 12 13 12 12 12 13 15 14 16 13 10 11 10 8 8 8 8 7 6 6
9 11 16 16 5 7 16 24 28 24 17 18 18 18 18 19 17 15 16 18 18 19 20 21 21 21 18 15 15 15 14 13 12 13 15 17 16 16 15 11 12 11 10 10 10 9 9 8 6
8 12 15 11 0 7 15 24 25 18 13 12 14 14 14 14 13 12 13 15 19 20 21 21 22 22 21 16 15 12 13 12 13 12 15 18 18 17 15 16 12 13 11 12 12 11 8 7 7
9 10 11 11 9 6 10 15 11 8 6 7 7 8 9 9 10 10 12 15 17 19 21 19 21 21 22 20 13 11 11 10 12 15 15 18 19 19 18 18 15 14 13 12 13 13 13 9 8
9 4 7 8 9 7 6 10 12 8 10 10 12 11 9 7 6 7 9 13 16 17 16 18 19 20 20 20 18 19 16 17 17 14 13 16 19 20 20 19 18 16 14 14 13 13 11 11 9
5 2 3 5 6 8 4 7 11 7 9 14 15 15 13 10 7 5 7 10 13 14 14 15 17 19 19 21 21 21 20 17 13 14 16 17 18 20 21 20 18 17 15 16 15 14 14 11 11
2 3 3 2 4 6 1 5 9 4 7 11 13 14 14 13 10 8 5 6 9 11 13 14 17 18 19 21 22 23 24 21 18 18 16 15 13 15 21 20 19 18 16 16 16 15 16 13 13
3 6 5 4 4 2 2 6 11 9 7 8 11 12 13 13 12 11 9 6 7 10 13 14 17 19 19 21 22 23 24 22 22 20 18 16 13 14 19 20 19 18 17 16 16 15 15 16 15
1 4 5 6 7 6 3 9 10 10 9 7 6 8 11 15 15 13 12 9 7 8 11 14 16 17 18 20 21 20 21 16 16 19 17 16 14 14 16 20 19 20 19 17 16 14 15 13 15
3 3 2 6 7 7 7 8 12 10 5 4 8 12 15 16 16 15 13 11 9 7 8 11 14 15 16 18 18 18 19 19 18 17 17 15 15 13 17 19 20 20 19 19 18 14 16 14 15
3 1 4 5 7 8 8 8 8 9 12 13 14 16 18 17 16 15 13 12 10 8 7 7 11 13 13 15 15 13 16 18 17 16 18 17 17 16 16 18 19 19 19 19 18 15 15 15 14
5 5 6 5 6 7 10 8 6 11 13 12 14 17 17 15 14 13 12 12 10 9 7 6 7 9 10 12 13 15 15 15 16 17 18 17 17 17 18 18 19 19 20 19 18 18 16 17 16
5 6 7 7 8 8 11 13 7 9 8 10 15 15 13 12 12 12 12 12 11 11 9 7 6 8 9 10 11 13 14 14 16 17 17 17 17 17 18 18 19 20 20 20 20 19 18 17 17
Wind_Direction
179 227 238 235 228 240 284 53 189 166 173 144 152 195 221 234 274 18 111 155 148 153 156 157 155 150 144 136 127 117 105 95 88 82 78 74 69 65 61 58 55 53 52 50 48 47 45 44 43
224 240 227 235 249 253 262 149 203 186 127 142 175 208 224 229 75 112 151 160 158 155 159 157 155 154 149 144 136 125 114 104 95 88 83 78 71 67 64 60 57 54 52 51 48 46 44 42 41
219 259 239 232 248 271 302 131 182 127 149 176 186 220 250 221 161 166 161 160 162 160 160 154 158 158 155 150 144 135 124 114 103 95 89 83 75 70 66 62 58 55 53 51 48 45 42 40 39
241 212 226 246 253 276 304 33 159 162 176 207 209 208 216 202 157 156 152 162 167 164 163 160 163 162 160 157 152 144 135 124 114 105 96 90 82 74 69 64 60 56 53 51 48 44 41 38 36
246 241 238 247 258 263 249 206 182 197 191 195 208 231 207 154 146 151 160 168 171 167 168 167 168 168 166 164 160 153 144 136 126 116 107 97 90 81 75 70 62 57 53 50 47 44 41 37 34
225 250 254 260 268 266 231 194 191 220 210 187 209 236 203 139 163 163 166 172 175 171 172 172 173 174 173 171 167 162 155 147 138 128 118 107 98 90 79 74 67 59 54 50 47 44 40 35 32
274 270 269 275 279 276 253 177 209 223 215 201 204 226 167 169 169 165 169 175 178 177 179 179 180 179 180 178 175 170 165 158 149 140 129 117 106 98 85 78 74 64 56 51 48 45 40 33 30
309 272 268 269 276 281 238 178 229 231 226 180 202 231 197 160 160 165 170 178 183 186 188 186 187 183 182 182 181 178 173 167 160 149 140 129 118 110 98 97 81 70 58 52 49 45 40 32 27
246 259 267 272 275 285 179 200 203 229 224 200 219 247 64 135 154 165 173 184 191 195 195 193 190 186 185 184 180 182 180 175 168 160 153 152 158 150 148 106 93 80 61 51 48 43 35 28 28
225 261 272 288 278 287 219 228 210 207 222 220 218 207 153 158 169 178 185 190 194 197 196 195 195 190 188 185 186 187 183 178 182 174 168 176 176 169 159 127 115 95 74 59 45 36 21 3 10
229 259 280 256 262 272 251 233 219 227 236 229 223 201 177 178 185 193 198 199 199 197 195 197 197 194 192 189 189 186 184 181 187 187 182 183 181 174 187 181 170 172 183 188 154 264 7 5 8
244 250 261 266 239 246 248 243 229 231 248 262 240 201 178 188 195 200 203 203 200 199 199 198 198 198 198 196 194 194 190 189 190 192 192 188 188 194 193 201 195 198 201 211 239 297 339 339 340
240 262 249 252 250 252 256 248 258 252 250 241 223 192 193 199 204 208 209 206 203 203 201 200 199 199 199 201 200 200 200 197 195 192 195 196 195 197 195 200 200 206 207 214 229 253 287 300 309
283 268 263 259 247 245 259 264 252 262 249 231 223 216 210 210 209 208 208 208 206 205 203 200 200 201 200 201 203 203 203 200 200 197 198 200 203 201 198 202 204 208 210 217 231 250 271 281 286
264 278 267 230 229 247 271 264 235 252 235 232 228 226 222 220 215 213 209 209 207 206 204 201 200 201 202 205 206 206 203 201 202 201 201 201 205 204 201 206 206 207 206 212 223 232 251 264 271
243 257 270 181 200 207 256 276 275 262 234 245 242 234 227 223 220 219 215 212 210 206 204 202 199 202 204 205 206 207 206 204 205 203 202 203 206 206 205 208 210 204 204 212 220 229 241 247 259
228 276 296 298 195 212 242 277 286 279 247 257 257 249 237 232 225 221 216 213 209 206 203 202 200 203 204 205 207 210 209 209 208 205 204 204 205 206 207 211 210 203 206 211 216 224 234 246 254
300 300 296 298 266 233 258 274 285 285 260 262 265 261 250 242 234 222 215 212 209 206 204 203 201 204 203 204 208 211 215 214 212 210 208 205 204 205 208 211 210 205 208 211 212 221 223 240 254
290 283 288 295 310 257 273 282 288 295 288 272 269 267 259 252 248 230 213 209 206 205 204 203 202 203 200 200 204 207 211 212 214 214 213 209 207 205 208 210 209 207 212 213 214 218 226 228 232
257 277 288 300 118 262 293 289 289 295 294 291 288 286 280 270 255 232 215 208 207 206 205 205 205 202 202 203 204 209 214 217 217 215 217 213 210 207 207 211 209 207 212 214 214 214 221 225 217
261 266 292 304 313 254 301 293 293 319 326 316 312 306 303 287 271 243 220 216 211 211 208 207 206 205 204 202 202 204 212 220 216 216 216 214 212 210 209 211 211 209 210 212 211 209 215 222 215
283 294 276 288 303 307 341 304 303 336 344 20 22 19 8 350 302 264 234 222 218 218 213 213 211 209 206 202 205 204 206 214 217 215 215 214 213 213 211 211 212 211 210 213 211 209 212 219 225
286 357 274 281 284 285 254 265 289 323 360 12 15 21 21 13 354 312 257 236 227 219 215 215 215 213 209 207 210 212 219 225 225 219 219 217 212 214 212 211 210 211 211 212 210 207 210 213 221
261 250 212 208 240 256 220 262 289 330 354 348 357 9 14 10 3 350 312 256 235 220 214 213 215 216 212 211 213 216 222 224 225 222 220 217 215 213 214 211 211 211 210 210 210 209 210 212 218
236 284 283 262 246 262 123 256 262 286 316 315 323 339 353 358 358 352 341 302 250 226 217 213 214 217 213 213 216 220 224 226 228 227 223 219 218 215 213 209 211 210 210 209 207 208 212 213 216
253 278 303 305 299 303 232 249 266 292 304 296 300 328 346 354 350 342 335 321 289 249 226 219 219 220 215 215 219 222 225 227 232 231 228 224 223 221 216 211 212 211 208 207 206 208 211 213 217
229 222 324 285 278 273 257 263 285 279 273 327 348 355 354 349 343 339 335 331 319 292 251 230 226 225 221 220 221 223 224 226 231 233 232 232 229 225 220 214 213 211 209 206 204 209 210 210 215
299 227 202 247 280 279 267 260 260 289 313 334 344 348 346 344 342 341 338 337 331 319 295 255 238 234 229 225 224 226 226 228 230 232 231 231 230 226 223 218 215 212 209 207 206 209 211 211 214
179 194 224 248 263 280 287 270 252 283 312 332 338 340 341 343 342 342 342 341 337 334 322 290 259 246 238 231 229 228 230 230 230 232 234 233 231 227 224 220 216 214 210 207 206 209 207 211 215
242 239 219 249 261 250 280 282 276 285 314 326 330 338 344 348 347 347 348 348 348 346 338 318 287 263 250 241 236 236 235 233 233 235 235 234 232 229 225 222 218 216 212 207 207 208 208 209 214